GIA148 WIII-WIEE

Flight info

Callsign GIA148
Flight time 1h 21m
Altitude 36000
Route GUDBA T6 LEBEG
Aircraft B738/M-SDE2E3FGHIRWXY/LB1

Departure

Time 2026-05-06 02:49
Airport Soekarno-Hatta International Airport (WIII)

Arrival

Time 2026-05-06 04:10
Airport Minangkabau International Airport (WIEE)
Time Latitude Longitude Altitude Speed Heading
2026-05-06 02:29 -6.11617 106.66771 37 ft 0 kts 167°
2026-05-06 02:35 -6.11615 106.66771 37 ft 3 kts 166°
2026-05-06 02:36 -6.11597 106.66764 37 ft 3 kts 158°
2026-05-06 02:36 -6.11572 106.66754 36 ft 4 kts 158°
2026-05-06 02:36 -6.11549 106.66744 35 ft 4 kts 168°
2026-05-06 02:36 -6.11531 106.66748 36 ft 4 kts 243°
2026-05-06 02:37 -6.11522 106.66770 36 ft 1 kts 248°
2026-05-06 02:37 -6.11521 106.66770 37 ft 0 kts 248°
2026-05-06 02:40 -6.11522 106.66768 37 ft 2 kts 248°
2026-05-06 02:40 -6.11539 106.66725 37 ft 11 kts 248°
2026-05-06 02:40 -6.11574 106.66637 36 ft 15 kts 248°
2026-05-06 02:41 -6.11616 106.66531 35 ft 15 kts 248°
2026-05-06 02:41 -6.11645 106.66447 36 ft 11 kts 267°
2026-05-06 02:41 -6.11596 106.66393 37 ft 11 kts 337°
2026-05-06 02:41 -6.11519 106.66363 37 ft 12 kts 339°
2026-05-06 02:42 -6.11437 106.66330 37 ft 13 kts 339°
2026-05-06 02:42 -6.11357 106.66285 38 ft 13 kts 300°
2026-05-06 02:42 -6.11374 106.66195 38 ft 14 kts 248°
2026-05-06 02:42 -6.11412 106.66099 36 ft 15 kts 248°
2026-05-06 02:43 -6.11453 106.65995 37 ft 17 kts 248°
2026-05-06 02:43 -6.11498 106.65883 36 ft 18 kts 248°
2026-05-06 02:43 -6.11545 106.65763 36 ft 19 kts 248°
2026-05-06 02:43 -6.11596 106.65637 37 ft 20 kts 248°
2026-05-06 02:44 -6.11648 106.65507 36 ft 20 kts 248°
2026-05-06 02:44 -6.11698 106.65380 38 ft 19 kts 248°
2026-05-06 02:44 -6.11747 106.65258 38 ft 19 kts 248°
2026-05-06 02:44 -6.11795 106.65135 38 ft 19 kts 248°
2026-05-06 02:45 -6.11847 106.65007 36 ft 20 kts 247°
2026-05-06 02:45 -6.11901 106.64873 35 ft 21 kts 248°
2026-05-06 02:45 -6.11955 106.64736 38 ft 20 kts 248°
2026-05-06 02:45 -6.12007 106.64607 38 ft 20 kts 248°
2026-05-06 02:46 -6.12056 106.64482 38 ft 19 kts 248°
2026-05-06 02:46 -6.12105 106.64361 38 ft 18 kts 248°
2026-05-06 02:46 -6.12151 106.64244 38 ft 18 kts 248°
2026-05-06 02:46 -6.12196 106.64132 37 ft 17 kts 248°
2026-05-06 02:47 -6.12237 106.64032 37 ft 13 kts 248°
2026-05-06 02:47 -6.12257 106.63953 39 ft 11 kts 274°
2026-05-06 02:47 -6.12219 106.63897 40 ft 9 kts 336°
2026-05-06 02:47 -6.12157 106.63898 41 ft 9 kts 20°
2026-05-06 02:48 -6.12099 106.63922 40 ft 9 kts 27°
2026-05-06 02:48 -6.12064 106.63974 39 ft 9 kts 68°
2026-05-06 02:48 -6.12014 106.64105 37 ft 49 kts 69°
2026-05-06 02:48 -6.11788 106.64667 41 ft 121 kts 68°
2026-05-06 02:49 -6.11405 106.65624 189 ft 165 kts 69°
2026-05-06 02:49 -6.10986 106.66675 1025 ft 160 kts 70°
2026-05-06 02:49 -6.10473 106.67720 1746 ft 169 kts 55°
2026-05-06 02:49 -6.09635 106.68487 2641 ft 169 kts 39°
2026-05-06 02:50 -6.08568 106.69208 2978 ft 203 kts 34°
2026-05-06 02:50 -6.07297 106.69984 3297 ft 225 kts 33°
2026-05-06 02:50 -6.05892 106.70836 3624 ft 247 kts 33°
2026-05-06 02:50 -6.04334 106.71779 3930 ft 271 kts 33°
2026-05-06 02:51 -6.02714 106.72756 4608 ft 273 kts 33°
2026-05-06 02:51 -6.01097 106.73755 4867 ft 272 kts 34°
2026-05-06 02:51 -5.99465 106.74668 5010 ft 269 kts 21°
2026-05-06 02:51 -5.97587 106.74861 4902 ft 281 kts 351°
2026-05-06 02:52 -5.95833 106.73973 5372 ft 290 kts 318°
2026-05-06 02:52 -5.94741 106.72291 6316 ft 290 kts 293°
2026-05-06 02:52 -5.93961 106.70426 7149 ft 290 kts 295°
2026-05-06 02:52 -5.93143 106.68571 7943 ft 293 kts 295°
2026-05-06 02:53 -5.92282 106.66691 8640 ft 300 kts 296°
2026-05-06 02:53 -5.91395 106.64779 9383 ft 304 kts 296°
2026-05-06 02:53 -5.90497 106.62849 10136 ft 307 kts 296°
2026-05-06 02:53 -5.89568 106.60852 10472 ft 327 kts 296°
2026-05-06 02:54 -5.88570 106.58716 10664 ft 349 kts 296°
2026-05-06 02:54 -5.87523 106.56470 11097 ft 360 kts 296°
2026-05-06 02:54 -5.86455 106.54179 11738 ft 363 kts 296°
2026-05-06 02:54 -5.85380 106.51871 12434 ft 366 kts 296°
2026-05-06 02:55 -5.84296 106.49545 13101 ft 371 kts 296°
2026-05-06 02:55 -5.83196 106.47187 13725 ft 374 kts 296°
2026-05-06 02:55 -5.82088 106.44808 13911 ft 379 kts 296°
2026-05-06 02:55 -5.80970 106.42402 14545 ft 381 kts 296°
2026-05-06 02:56 -5.79851 106.39990 15258 ft 382 kts 296°
2026-05-06 02:56 -5.78729 106.37572 15947 ft 383 kts 296°
2026-05-06 02:56 -5.77598 106.35135 16605 ft 386 kts 296°
2026-05-06 02:56 -5.76458 106.32679 17225 ft 389 kts 296°
2026-05-06 02:57 -5.75310 106.30207 17858 ft 392 kts 296°
2026-05-06 02:57 -5.74154 106.27716 18413 ft 396 kts 296°
2026-05-06 02:57 -5.73204 106.25107 18890 ft 401 kts 287°
2026-05-06 02:57 -5.72510 106.22386 19397 ft 404 kts 284°
2026-05-06 02:58 -5.71880 106.19624 19890 ft 407 kts 283°
2026-05-06 02:58 -5.71258 106.16846 20372 ft 411 kts 284°
2026-05-06 02:58 -5.70617 106.14034 20853 ft 414 kts 284°
2026-05-06 02:58 -5.69966 106.11249 21313 ft 417 kts 284°
2026-05-06 02:59 -5.69288 106.08413 21770 ft 420 kts 284°
2026-05-06 02:59 -5.68596 106.05555 22219 ft 423 kts 284°
2026-05-06 02:59 -5.67892 106.02673 22671 ft 426 kts 284°
2026-05-06 02:59 -5.67185 105.99783 23098 ft 429 kts 284°
2026-05-06 03:00 -5.66469 105.96866 23524 ft 431 kts 284°
2026-05-06 03:00 -5.65750 105.93932 23881 ft 434 kts 284°
2026-05-06 03:00 -5.65029 105.90989 24233 ft 436 kts 284°
2026-05-06 03:00 -5.64302 105.88024 24601 ft 438 kts 284°
2026-05-06 03:01 -5.63573 105.85049 24948 ft 440 kts 284°
2026-05-06 03:01 -5.62840 105.82061 25298 ft 442 kts 284°
2026-05-06 03:01 -5.62105 105.79061 25624 ft 444 kts 284°
2026-05-06 03:01 -5.61364 105.76038 25968 ft 447 kts 284°
2026-05-06 03:02 -5.60620 105.73005 26291 ft 449 kts 284°
2026-05-06 03:02 -5.59872 105.69954 26626 ft 451 kts 284°
2026-05-06 03:02 -5.59120 105.66889 26958 ft 453 kts 284°
2026-05-06 03:02 -5.58365 105.63814 27281 ft 455 kts 284°
2026-05-06 03:03 -5.57607 105.60724 27598 ft 457 kts 284°
2026-05-06 03:03 -5.56844 105.57619 27923 ft 459 kts 284°
2026-05-06 03:03 -5.55773 105.54612 28207 ft 460 kts 299°
2026-05-06 03:03 -5.53984 105.51949 28540 ft 460 kts 307°
2026-05-06 03:04 -5.52065 105.49370 28824 ft 462 kts 307°
2026-05-06 03:04 -5.50118 105.46790 29068 ft 465 kts 308°
2026-05-06 03:04 -5.48162 105.44194 29345 ft 467 kts 307°
2026-05-06 03:04 -5.46211 105.41581 29639 ft 468 kts 307°
2026-05-06 03:05 -5.44263 105.38950 29931 ft 470 kts 307°
2026-05-06 03:05 -5.42321 105.36310 30168 ft 471 kts 307°
2026-05-06 03:05 -5.40379 105.33661 30426 ft 472 kts 307°
2026-05-06 03:05 -5.38440 105.31011 30743 ft 471 kts 307°
2026-05-06 03:06 -5.36503 105.28362 31089 ft 469 kts 307°
2026-05-06 03:06 -5.34575 105.25726 31412 ft 469 kts 307°
2026-05-06 03:06 -5.32647 105.23091 31726 ft 468 kts 307°
2026-05-06 03:06 -5.30719 105.20459 32049 ft 468 kts 307°
2026-05-06 03:07 -5.28796 105.17833 32381 ft 467 kts 307°
2026-05-06 03:07 -5.26873 105.15208 32727 ft 466 kts 307°
2026-05-06 03:07 -5.24957 105.12593 33080 ft 465 kts 307°
2026-05-06 03:07 -5.23043 105.09981 33431 ft 464 kts 307°
2026-05-06 03:08 -5.21134 105.07376 33783 ft 463 kts 307°
2026-05-06 03:08 -5.19226 105.04773 34098 ft 462 kts 307°
2026-05-06 03:08 -5.17326 105.02181 34421 ft 461 kts 307°
2026-05-06 03:08 -5.15430 104.99595 34759 ft 459 kts 307°
2026-05-06 03:09 -5.13540 104.97017 35088 ft 458 kts 307°
2026-05-06 03:09 -5.11655 104.94446 35386 ft 457 kts 307°
2026-05-06 03:09 -5.09773 104.91880 35668 ft 457 kts 307°
2026-05-06 03:09 -5.07894 104.89318 35899 ft 456 kts 307°
2026-05-06 03:10 -5.06007 104.86746 35880 ft 458 kts 307°
2026-05-06 03:10 -5.02235 104.81605 35895 ft 457 kts 307°
2026-05-06 03:11 -4.99115 104.77353 35903 ft 454 kts 307°
2026-05-06 03:11 -4.95382 104.72267 35907 ft 452 kts 307°
2026-05-06 03:12 -4.91658 104.67192 35906 ft 451 kts 307°
2026-05-06 03:12 -4.87945 104.62135 35914 ft 450 kts 307°
2026-05-06 03:13 -4.84231 104.57076 35916 ft 451 kts 307°
2026-05-06 03:13 -4.80510 104.52010 35911 ft 451 kts 307°
2026-05-06 03:14 -4.76789 104.46942 35915 ft 452 kts 307°
2026-05-06 03:14 -4.73065 104.41866 35915 ft 452 kts 307°
2026-05-06 03:15 -4.69335 104.36784 35912 ft 453 kts 307°
2026-05-06 03:15 -4.65600 104.31695 35915 ft 453 kts 307°
2026-05-06 03:16 -4.61861 104.26600 35913 ft 454 kts 307°
2026-05-06 03:16 -4.58116 104.21501 35914 ft 454 kts 307°
2026-05-06 03:17 -4.54371 104.16402 35913 ft 455 kts 307°
2026-05-06 03:17 -4.50621 104.11297 35916 ft 454 kts 307°
2026-05-06 03:18 -4.46872 104.06194 35918 ft 454 kts 307°
2026-05-06 03:18 -4.43126 104.01097 35917 ft 454 kts 307°
2026-05-06 03:19 -4.39383 103.96004 35924 ft 454 kts 307°
2026-05-06 03:19 -4.35643 103.90916 35928 ft 453 kts 307°
2026-05-06 03:20 -4.30064 103.83329 35930 ft 453 kts 307°
2026-05-06 03:20 -4.26331 103.78254 35938 ft 452 kts 307°
2026-05-06 03:21 -4.22600 103.73182 35941 ft 452 kts 307°
2026-05-06 03:21 -4.18867 103.68108 35945 ft 452 kts 307°
2026-05-06 03:22 -4.15134 103.63035 35948 ft 452 kts 307°
2026-05-06 03:22 -4.11399 103.57960 35946 ft 453 kts 307°
2026-05-06 03:23 -4.07660 103.52881 35953 ft 453 kts 307°
2026-05-06 03:23 -4.03920 103.47802 35950 ft 453 kts 307°
2026-05-06 03:24 -4.00176 103.42717 35952 ft 454 kts 307°
2026-05-06 03:24 -3.96431 103.37633 35945 ft 454 kts 307°
2026-05-06 03:25 -3.92683 103.32545 35944 ft 454 kts 307°
2026-05-06 03:25 -3.88936 103.27461 35945 ft 454 kts 307°
2026-05-06 03:26 -3.85188 103.22374 35939 ft 454 kts 307°
2026-05-06 03:26 -3.81435 103.17282 35934 ft 454 kts 307°
2026-05-06 03:27 -3.77705 103.12223 35933 ft 455 kts 307°
2026-05-06 03:27 -3.73949 103.07127 35934 ft 455 kts 307°
2026-05-06 03:28 -3.70189 103.02029 35932 ft 455 kts 307°
2026-05-06 03:28 -3.66431 102.96935 35932 ft 455 kts 307°
2026-05-06 03:29 -3.62672 102.91838 35925 ft 455 kts 307°
2026-05-06 03:29 -3.58911 102.86740 35929 ft 455 kts 307°
2026-05-06 03:30 -3.55155 102.81650 35936 ft 454 kts 307°
2026-05-06 03:30 -3.51400 102.76562 35936 ft 454 kts 307°
2026-05-06 03:31 -3.47646 102.71477 35941 ft 454 kts 307°
2026-05-06 03:31 -3.43890 102.66389 35942 ft 455 kts 307°
2026-05-06 03:32 -3.40133 102.61300 35942 ft 455 kts 307°
2026-05-06 03:32 -3.36372 102.56208 35950 ft 455 kts 307°
2026-05-06 03:33 -3.32613 102.51118 35955 ft 455 kts 307°
2026-05-06 03:33 -3.28851 102.46024 35951 ft 455 kts 307°
2026-05-06 03:34 -3.25089 102.40932 35958 ft 455 kts 307°
2026-05-06 03:34 -3.21325 102.35837 35951 ft 456 kts 307°
2026-05-06 03:35 -3.17556 102.30738 35959 ft 456 kts 307°
2026-05-06 03:35 -3.13783 102.25632 35958 ft 456 kts 307°
2026-05-06 03:36 -3.10005 102.20521 35954 ft 457 kts 307°
2026-05-06 03:36 -3.06226 102.15410 35954 ft 457 kts 307°
2026-05-06 03:37 -3.02444 102.10294 35957 ft 457 kts 307°
2026-05-06 03:37 -2.98660 102.05177 35956 ft 457 kts 307°
2026-05-06 03:38 -2.94878 102.00063 35956 ft 457 kts 307°
2026-05-06 03:38 -2.91092 101.94945 35952 ft 457 kts 307°
2026-05-06 03:39 -2.87306 101.89827 35956 ft 458 kts 307°
2026-05-06 03:39 -2.83520 101.84710 35951 ft 458 kts 307°
2026-05-06 03:40 -2.79729 101.79586 35950 ft 458 kts 307°
2026-05-06 03:40 -2.75939 101.74464 35947 ft 458 kts 307°
2026-05-06 03:41 -2.72148 101.69341 35946 ft 458 kts 307°
2026-05-06 03:41 -2.68356 101.64218 35943 ft 459 kts 307°
2026-05-06 03:42 -2.64558 101.59086 35943 ft 459 kts 307°
2026-05-06 03:42 -2.60759 101.53961 35935 ft 458 kts 307°
2026-05-06 03:43 -2.56964 101.48842 35938 ft 458 kts 307°
2026-05-06 03:43 -2.53169 101.43722 35929 ft 458 kts 307°
2026-05-06 03:44 -2.49378 101.38607 35924 ft 458 kts 307°
2026-05-06 03:44 -2.45590 101.33496 35921 ft 456 kts 307°
2026-05-06 03:45 -2.43756 101.31022 35794 ft 441 kts 307°
2026-05-06 03:45 -2.41942 101.28574 35057 ft 438 kts 307°
2026-05-06 03:45 -2.40117 101.26113 33958 ft 446 kts 307°
2026-05-06 03:45 -2.38263 101.23613 33314 ft 445 kts 307°
2026-05-06 03:46 -2.36409 101.21113 32594 ft 448 kts 307°
2026-05-06 03:46 -2.34561 101.18620 32079 ft 446 kts 307°
2026-05-06 03:46 -2.32723 101.16141 31637 ft 442 kts 307°
2026-05-06 03:46 -2.30897 101.13679 31184 ft 439 kts 307°
2026-05-06 03:47 -2.29081 101.11230 30725 ft 437 kts 307°
2026-05-06 03:47 -2.27272 101.08790 30267 ft 435 kts 307°
2026-05-06 03:47 -2.25472 101.06363 29776 ft 434 kts 307°
2026-05-06 03:47 -2.23683 101.03951 29284 ft 430 kts 307°
2026-05-06 03:48 -2.21908 101.01558 28801 ft 427 kts 307°
2026-05-06 03:48 -2.20148 100.99184 28335 ft 423 kts 307°
2026-05-06 03:48 -2.18402 100.96831 27881 ft 420 kts 308°
2026-05-06 03:48 -2.16672 100.94499 27430 ft 416 kts 308°
2026-05-06 03:49 -2.14952 100.92180 26983 ft 413 kts 308°
2026-05-06 03:49 -2.13245 100.89879 26547 ft 410 kts 308°
2026-05-06 03:49 -2.11549 100.87594 26099 ft 408 kts 308°
2026-05-06 03:49 -2.09865 100.85324 25665 ft 406 kts 308°
2026-05-06 03:50 -2.08188 100.83063 25214 ft 404 kts 308°
2026-05-06 03:50 -2.06518 100.80813 24765 ft 402 kts 308°
2026-05-06 03:50 -2.04854 100.78570 24327 ft 401 kts 308°
2026-05-06 03:50 -2.03195 100.76335 23883 ft 399 kts 308°
2026-05-06 03:51 -2.01541 100.74106 23439 ft 398 kts 308°
2026-05-06 03:51 -1.99894 100.71886 22931 ft 396 kts 308°
2026-05-06 03:51 -1.98258 100.69682 22480 ft 393 kts 308°
2026-05-06 03:51 -1.96635 100.67494 22040 ft 390 kts 308°
2026-05-06 03:52 -1.95024 100.65323 21607 ft 387 kts 308°
2026-05-06 03:52 -1.93424 100.63167 21178 ft 384 kts 307°
2026-05-06 03:52 -1.91840 100.61033 20762 ft 381 kts 307°
2026-05-06 03:52 -1.90232 100.58931 20338 ft 378 kts 312°
2026-05-06 03:53 -1.88330 100.57141 19929 ft 374 kts 323°
2026-05-06 03:53 -1.86162 100.55729 19503 ft 371 kts 334°
2026-05-06 03:53 -1.83810 100.54688 19092 ft 368 kts 339°
2026-05-06 03:53 -1.81444 100.53721 18660 ft 367 kts 339°
2026-05-06 03:54 -1.79078 100.52766 18249 ft 366 kts 339°
2026-05-06 03:54 -1.76724 100.51814 17777 ft 364 kts 339°
2026-05-06 03:54 -1.74386 100.50863 17347 ft 361 kts 339°
2026-05-06 03:54 -1.72069 100.49915 16917 ft 359 kts 339°
2026-05-06 03:55 -1.69769 100.48970 16502 ft 356 kts 339°
2026-05-06 03:55 -1.67488 100.48030 16109 ft 353 kts 339°
2026-05-06 03:55 -1.65222 100.47095 15708 ft 351 kts 339°
2026-05-06 03:55 -1.62974 100.46166 15315 ft 349 kts 338°
2026-05-06 03:56 -1.60741 100.45243 14909 ft 347 kts 338°
2026-05-06 03:56 -1.58544 100.44335 14515 ft 345 kts 338°
2026-05-06 03:56 -1.56332 100.43420 14116 ft 344 kts 338°
2026-05-06 03:56 -1.54130 100.42510 13723 ft 342 kts 338°
2026-05-06 03:57 -1.51938 100.41604 13278 ft 340 kts 338°
2026-05-06 03:57 -1.49757 100.40702 12884 ft 338 kts 338°
2026-05-06 03:57 -1.48295 100.40098 12614 ft 336 kts 338°
2026-05-06 03:57 -1.46144 100.39209 12242 ft 333 kts 338°
2026-05-06 03:58 -1.44024 100.38332 11929 ft 328 kts 338°
2026-05-06 03:58 -1.41951 100.37476 11567 ft 326 kts 338°
2026-05-06 03:58 -1.39839 100.36603 11259 ft 321 kts 338°
2026-05-06 03:58 -1.37794 100.35757 10970 ft 317 kts 338°
2026-05-06 03:59 -1.35756 100.34915 10626 ft 316 kts 338°
2026-05-06 03:59 -1.33737 100.34080 10360 ft 311 kts 338°
2026-05-06 03:59 -1.31764 100.33265 10219 ft 303 kts 338°
2026-05-06 03:59 -1.29844 100.32471 10084 ft 294 kts 338°
2026-05-06 04:00 -1.27967 100.31695 9849 ft 291 kts 338°
2026-05-06 04:00 -1.26126 100.30934 9529 ft 290 kts 338°
2026-05-06 04:00 -1.24263 100.30165 9222 ft 289 kts 338°
2026-05-06 04:00 -1.22412 100.29400 8916 ft 288 kts 338°
2026-05-06 04:01 -1.20565 100.28636 8619 ft 287 kts 338°
2026-05-06 04:01 -1.18721 100.27874 8290 ft 286 kts 338°
2026-05-06 04:01 -1.16886 100.27116 7990 ft 285 kts 337°
2026-05-06 04:01 -1.15059 100.26360 7686 ft 284 kts 337°
2026-05-06 04:02 -1.13238 100.25608 7379 ft 282 kts 337°
2026-05-06 04:02 -1.11439 100.24864 7080 ft 277 kts 337°
2026-05-06 04:02 -1.09669 100.24132 6784 ft 273 kts 337°
2026-05-06 04:02 -1.07928 100.23413 6490 ft 269 kts 338°
2026-05-06 04:03 -1.06149 100.23128 6357 ft 255 kts 10°
2026-05-06 04:03 -1.04598 100.23819 6187 ft 241 kts 38°
2026-05-06 04:03 -1.03444 100.25062 5617 ft 247 kts 58°
2026-05-06 04:03 -1.02674 100.26586 5198 ft 246 kts 68°
2026-05-06 04:04 -1.02016 100.28164 4776 ft 246 kts 69°
2026-05-06 04:04 -1.01357 100.29744 4397 ft 244 kts 68°
2026-05-06 04:04 -1.00707 100.31269 4189 ft 234 kts 68°
2026-05-06 04:04 -1.00073 100.32739 3982 ft 226 kts 68°
2026-05-06 04:05 -0.99466 100.34161 3806 ft 217 kts 69°
2026-05-06 04:05 -0.98833 100.35480 3640 ft 207 kts 51°
2026-05-06 04:05 -0.97653 100.36178 3446 ft 199 kts
2026-05-06 04:05 -0.96318 100.35948 3299 ft 196 kts 340°
2026-05-06 04:06 -0.94993 100.35505 3074 ft 202 kts 340°
2026-05-06 04:06 -0.93714 100.35006 2980 ft 193 kts 336°
2026-05-06 04:06 -0.92491 100.34456 2773 ft 192 kts 334°
2026-05-06 04:06 -0.91276 100.33896 2508 ft 192 kts 334°
2026-05-06 04:07 -0.90065 100.33335 2272 ft 192 kts 334°
2026-05-06 04:07 -0.88861 100.32779 2013 ft 188 kts 334°
2026-05-06 04:07 -0.87705 100.32245 1770 ft 178 kts 335°
2026-05-06 04:07 -0.86623 100.31745 1555 ft 165 kts 335°
2026-05-06 04:08 -0.85620 100.31282 1319 ft 154 kts 335°
2026-05-06 04:08 -0.84664 100.30841 1107 ft 149 kts 334°
2026-05-06 04:08 -0.83724 100.30407 913 ft 149 kts 334°
2026-05-06 04:08 -0.82766 100.29972 705 ft 154 kts 334°
2026-05-06 04:09 -0.81776 100.29519 471 ft 158 kts 333°
2026-05-06 04:09 -0.80794 100.29052 272 ft 154 kts 333°
2026-05-06 04:09 -0.79835 100.28607 62 ft 150 kts 333°
2026-05-06 04:09 -0.78944 100.28199 31 ft 119 kts 335°
2026-05-06 04:10 -0.78384 100.27937 22 ft 58 kts 335°
2026-05-06 04:10 -0.78091 100.27800 24 ft 40 kts 335°
2026-05-06 04:10 -0.77849 100.27687 26 ft 37 kts 335°
2026-05-06 04:10 -0.77676 100.27615 27 ft 17 kts 355°
2026-05-06 04:11 -0.77588 100.27607 27 ft 10 kts 310°
2026-05-06 04:11 -0.77604 100.27572 28 ft 6 kts 184°
2026-05-06 04:11 -0.77642 100.27591 28 ft 6 kts 154°
2026-05-06 04:11 -0.77692 100.27614 27 ft 11 kts 155°
2026-05-06 04:12 -0.77778 100.27654 26 ft 17 kts 155°
2026-05-06 04:12 -0.77904 100.27713 27 ft 22 kts 155°
2026-05-06 04:12 -0.78061 100.27786 24 ft 27 kts 155°
2026-05-06 04:12 -0.78234 100.27866 24 ft 27 kts 155°
2026-05-06 04:13 -0.78392 100.27940 23 ft 24 kts 155°
2026-05-06 04:13 -0.78530 100.28004 27 ft 19 kts 154°
2026-05-06 04:13 -0.78582 100.28046 26 ft 8 kts 115°
2026-05-06 04:13 -0.78565 100.28101 28 ft 9 kts 65°
2026-05-06 04:14 -0.78533 100.28171 25 ft 12 kts 64°
2026-05-06 04:14 -0.78493 100.28253 23 ft 14 kts 65°
2026-05-06 04:14 -0.78511 100.28324 23 ft 11 kts 146°
2026-05-06 04:14 -0.78571 100.28353 26 ft 9 kts 155°
2026-05-06 04:15 -0.78619 100.28384 24 ft 8 kts 110°
2026-05-06 04:15 -0.78601 100.28437 26 ft 8 kts 65°
2026-05-06 04:15 -0.78589 100.28464 23 ft 2 kts 65°
2026-05-06 04:15 -0.78586 100.28470 25 ft 1 kts 65°